Regional Weather Roundup
Issued by NWS

Home | Current Version | Previous Version | Text Only | Print | Product List | Glossary Off
Versions: 1 2 3 4 5 6 7 8 9 10 11 12 13 14 15 16 17 18 19 20 21 22 23 24 25 26 27 28 29 30 31 32 33 34 35 36 37 38 39 40 41 42 43 44 45 46 47 48 49 50

163
ASUS43 KFSD 260702
RWRSD

WEATHER ROUNDUP FOR SOUTH DAKOTA
NATIONAL WEATHER SERVICE SIOUX FALLS SD
200 AM CDT SAT MAY 26 2018

NOTE: "FAIR" INDICATES FEW OR NO CLOUDS BELOW 12,000 FEET WITH NO
SIGNIFICANT WEATHER AND/OR OBSTRUCTIONS TO VISIBILITY.


SDZ001>005-009-010-012>017-260800-
NORTHWEST AND NORTH CENTRAL SOUTH DAKOTA

CITY           SKY/WX    TMP DP  RH WIND       PRES   REMARKS
BUFFALO          N/A     62  47  57 S3        29.79S
FAITH            N/A     68  50  52 W5        29.83S
MOBRIDGE       CLEAR     61  55  81 NW3       29.74S
$$

SDZ012>016-024>037-041>051-057-063-072>074-260800-
SOUTHWEST AND SOUTH CENTRAL SOUTH DAKOTA

CITY           SKY/WX    TMP DP  RH WIND       PRES   REMARKS
RAPID CTY ARPT CLEAR     59  54  83 NW6       29.87F
PIERRE         CLEAR     67  61  81 SW6       29.77S
CUSTER         CLEAR     52  48  86 NW5       30.02F
ELLSWORTH AFB  CLEAR     64  58  82 SW3       29.87F
PHILIP         CLEAR     62  60  93 W3        29.82S
PINE RIDGE     CLEAR     57  54  89 W3        29.89S
SPEARFISH      FAIR      59  54  82 S7        29.91F
WINNER         FAIR      65  57  75 SW6       29.82S
$$

SDZ004>011-016>023-039-040-260800-
NORTHEAST SOUTH DAKOTA

CITY           SKY/WX    TMP DP  RH WIND       PRES   REMARKS
ABERDEEN       CLEAR     63  55  75 SW6       29.71S
WATERTOWN      CLEAR     65  56  72 CALM      29.74S
BROOKINGS      CLEAR     64  55  72 SW3       29.76S
SISSETON         N/A     76  53  44 W12       29.67R
$$

SDZ017-020-022-023-036>040-048>070-260800-
SOUTHEAST SOUTH DAKOTA

CITY           SKY/WX    TMP DP  RH WIND       PRES   REMARKS
SIOUX FALLS    CLEAR     62  60  93 CALM      29.76S
HURON          CLEAR     63  56  78 W5        29.74S
CHAMBERLAIN    CLEAR     67  63  87 SW3       29.79S
MITCHELL       CLEAR     66  58  75 SW5       29.76S
YANKTON        CLEAR     69  61  75 SW3       29.77S
$$

ABBREVIATIONS USED IN REMARKS
   TC - TEMPERATURE IN CELSIUS
  WCI - WIND CHILL INDEX
   HX - HEAT INDEX
  VSB - VISIBILITY





USA.gov is the U.S. government's official web portal to all federal, state and local government web resources and services.